Tracking 35331 objects as of 16-Sep-2026
HD Live streaming from Space Station
objects crossing your sky now

SL-8 R/B

Track SL-8 R/B now!
10-day predictions


NORAD ID: 9613
Int'l Code: 1976-122B
Launch date: December 15, 1976
Source: Commonwealth of Independent States (former USSR) (CIS)
Launch site: PLESETSK MISSILE AND SPACE COMPLEX (PKMTR)

Note: This is a ROCKET BODY
Your satellite tracking list
Your tracking list is empty




NASA's NSSDC Master Catalog

Two Line Element Set (TLE):
1 09613U 76122B   26258.97642962  .00000070  00000-0  54908-4 0  9992
2 09613  82.9574 163.1359 0029925 179.1174 181.0042 13.77782158500113
Source of the keplerian elements: AFSPC